Starlink 3641

operational
NORAD ID: 51788 Int'l Des: 2022-017 Owner: SPXS Country: US Constellation: starlink
LEOCIRCULAR

Über Starlink 3641

Beschreibung wird geladen...

Live-Position

3D-Globus wird geladen...

Nächste Überflüge

Höhenverlauf

Altitude vs Time

uPlot chart will show altitude changes over time

Zweizeiliger Elementsatz

1 51788U 22017W 25350.31567529 .00000602 00000-0 55882-4 0 9994
2 51788 53.2188 3.4016 0001330 71.7193 288.3943 15.08845036211334
Epoch: 16. Dez. 2025 • Age: 20 hours

Aktueller Status

Höhe 558.8 km
Geschwindigkeit 7.58 km/s
Subsatellitenpunkt -52.58°S, 139.02°E
Startdatum 25. Feb. 2022
Alter 3.8 years
Typ internet

Technische Details

Klassifizierung Payload
Masse 297.00 kg
Trockenmasse 275.00 kg
Gesamtmasse 297.00 kg
Länge 0.20 m
Durchmesser 2.80 m
Spannweite 9.00 m
Form Box + pan
Hersteller SPXS
Bus-Typ Starlink
Phasenstatus In Orbit
Besitzer/Staat SPXS/US

Große Konstellationen

Loading constellations...